Regional Weather Roundup
Issued by NWS

Home | Current Version | Previous Version | Graphics & Text | Print | Product List | Glossary On
Versions: 1 2 3 4 5 6 7 8 9 10 11 12 13 14 15 16 17 18 19 20 21 22 23 24 25 26 27 28 29 30 31 32 33 34 35 36 37 38 39 40 41 42 43 44 45 46 47 48 49 50
000
ASUS43 KOAX 221110
RWRNE

WEATHER ROUNDUP FOR NEBRASKA
NATIONAL WEATHER SERVICE OMAHA NE
600 AM CDT WED OCT 22 2014

NOTES: SATELLITE DATA IS BEING USED TO AUGMENT CLOUD COVER ABOVE
       12000 FEET.
       "FAIR" INDICATES FEW OR NO CLOUDS BELOW 12,000 FEET WITH NO
       SIGNIFICANT WEATHER AND/OR OBSTRUCTIONS TO VISIBILITY.

  * THESE STATIONS DO NOT REPORT WEATHER SUCH AS RAIN...SNOW OR FOG.

NEZ001>004-019>022-054>056-221200-
NEBRASKA PANHANDLE

CITY           SKY/WX    TMP DP  RH WIND       PRES   REMARKS
SCOTTSBLUFF    CLOUDY    53  50  89 CALM      29.95R
ALLIANCE       LGT RAIN  53  49  86 W6        29.96R FOG
CHADRON        CLOUDY    56  48  74 SW8       29.90R
KIMBALL        CLOUDY    50  47  90 W8        29.98R
SIDNEY         LGT RAIN  54  46  74 NW10      29.95F
$$

NEZ057>060-069>072-079>082-221200-
SOUTHWEST NEBRASKA

CITY           SKY/WX    TMP DP  RH WIND       PRES   REMARKS
NORTH PLATTE   MOCLDY    58  49  72 S8        29.92R
IMPERIAL       MOCLDY    54  46  74 SW3       29.93R
LEXINGTON      MOCLDY    59  53  79 S12       29.93S
MCCOOK         MOCLDY    59  50  72 S6        29.93S
OGALLALA       CLOUDY    52  47  82 W7        29.94R
$$

NEZ005>010-023>029-035>040-094-221200-
NORTH CENTRAL NEBRASKA

CITY           SKY/WX    TMP DP  RH WIND       PRES   REMARKS
VALENTINE      CLOUDY    61  51  70 SW14      29.89R
AINSWORTH      CLOUDY    58  53  84 S10       29.88R
BROKEN BOW     CLOUDY    57  53  86 SE5       29.94R
O`NEILL        MOCLDY    57  52  84 SE14G20   29.93S
ORD            PTCLDY    53  51  93 SE8       29.94S
THEDFORD       CLOUDY    60  51  71 S10       29.91R
$$

NEZ041-046>049-061>064-073>077-083>087-221200-
SOUTH CENTRAL NEBRASKA

CITY           SKY/WX    TMP DP  RH WIND       PRES   REMARKS
GRAND ISLAND   CLEAR     57  54  89 S14       29.99S
AURORA         CLEAR     55  51  89 SE13      30.01S
HASTINGS       CLEAR     57  53  86 S12       30.00S
HEBRON         CLEAR     56  51  82 SE12      30.05R
HOLDREGE       PTCLDY    56  52  85 CALM      29.97S
KEARNEY *      PTCLDY    55  52  88 SE14      29.98S
YORK           CLEAR     55  48  76 S12       30.03S
$$

NEZ011>018-030>034-042>045-221200-
NORTHEAST NEBRASKA

CITY           SKY/WX    TMP DP  RH WIND       PRES   REMARKS
NORFOLK        CLEAR     55  44  66 SE15      30.01R
ALBION         CLEAR     54  47  77 SE9       30.00R
BLAIR          PTCLDY    55  44  66 SE14G21   30.08S
COLUMBUS *     CLEAR     55  43  62 SE12      30.04S
FREMONT        CLEAR     56  44  66 SE15G21   30.07R
TEKAMAH        PTCLDY    54  44  69 SE13      30.08S
WAYNE          CLEAR     54  45  71 SE16G22   30.03R
$$

NEZ050>053-065>068-078-088>093-221200-
SOUTHEAST NEBRASKA

CITY           SKY/WX    TMP DP  RH WIND       PRES   REMARKS
LINCOLN        CLEAR     54  43  66 S12       30.08S
OMAHA EPPLEY   MOCLDY    55  44  66 SE16      30.11R
BEATRICE       CLEAR     54  45  69 SE9       30.07S
FALLS CITY     PTCLDY    53  46  77 SE7       30.12R
NEBRASKA CITY  PTCLDY    53  41  64 SE9       30.12R
PLATTSMOUTH    CLEAR     53  43  67 SE13      30.11R
$$

NEZ044-045-051>053-067-221200-
OMAHA AREA

CITY           SKY/WX    TMP DP  RH WIND       PRES   REMARKS
OMAHA EPPLEY   MOCLDY    55  44  66 SE16      30.11R
BLAIR          PTCLDY    55  44  66 SE14G21   30.08S
FREMONT        CLEAR     56  44  66 SE15G21   30.07R
MILLARD        PTCLDY    54  45  73 SE9       30.09S
OFFUTT AFB     PTCLDY    54  49  82 E14       30.11R
PLATTSMOUTH    CLEAR     53  43  67 SE13      30.11R
WAHOO          FAIR      53  44  71 SE12      30.08R
$$



USA.gov is the U.S. government's official web portal to all federal, state and local government web resources and services.